Location: Newark
(39.0083°N, 20.7336°E)
Time: 15:42:06
(UTC+00:00)

Nauka - Pass Details

Date: 29 September 2021
Orbit: 418 x 423 km, 51.6° (Epoch: 18 October)

Event Time Altitude Azimuth Distance (km) Brightness Sun altitude
Rises 18:15:22 0° 316° (NW) 2,366 ? -22.5°
Reaches altitude 10° 18:17:52 10° 334° (NNW) 1,501 ? -23.0°
Enters shadow 18:19:20 17° 358° (N) 1,143 ? -23.2°
